Вернуться в каталог

CZ-6A DEB

АктивенSSO
NORAD 55888·DEBRIS·🇨🇳 China

Запущен Nov 11, 2022 с Taiyuan Satellite Launch Center

Loading…

Ближайшие Пролёты (ближайшие 24 часа)

TLE

СвежийSource: Space-Track

Эпоха: Sep 14, 2026, 13:12 UTC

1 55888U 22151AAL 26257.55060142  .00004607  00000-0  85571-3 0  9996
2 55888  98.4472 287.7232 0127583  20.3566 340.2654 14.60537020197525

Отслеживайте CZ-6A DEB в реальном времени с AllMySat

Download on the App Store